Theta_e
325 325 324 323 323 322 322 318 316 309 306 302 302 302 301 302 302 303 304 304 303 303 302 306 308 309 309 311 314 313 315 317 318 317 318 317 318 317 318 318 318 318 318 318 317
324 324 324 324 323 322 320 319 314 307 304 304 303 302 301 301 302 303 306 306 307 304 306 308 308 308 309 310 311 313 315 316 316 316 316 316 316 317 317 317 318 317 317 316 315
323 323 323 323 324 323 321 318 312 305 302 303 303 301 301 300 304 308 306 307 307 307 308 308 307 307 309 310 311 312 314 314 315 314 314 315 316 315 315 316 315 315 313 314 314
324 323 323 323 323 323 321 318 311 304 304 303 301 301 300 300 308 305 308 307 307 306 307 307 308 308 308 310 311 312 312 312 312 313 313 313 312 312 312 313 313 313 313 313 313
324 324 323 323 323 323 322 318 314 304 308 304 301 300 299 303 303 302 301 306 306 306 307 307 308 308 310 309 309 311 311 310 311 311 310 310 311 312 312 312 312 311 312 311 311
324 324 323 323 323 322 322 319 317 309 308 302 300 298 299 304 303 302 301 301 303 306 307 307 308 308 309 310 310 310 311 310 309 309 309 310 310 311 311 311 311 310 310 310 310
324 324 324 324 323 321 321 320 318 313 307 301 299 297 300 305 304 301 301 301 306 307 308 308 308 308 308 309 307 307 308 309 309 309 310 309 311 311 311 310 310 310 310 309 309
325 325 325 324 323 322 321 320 319 315 308 300 299 298 303 302 300 301 301 302 306 305 306 306 306 308 308 308 309 310 309 309 310 309 309 309 310 311 310 310 310 309 309 309 309
325 324 323 323 322 320 321 319 317 312 303 302 300 300 304 301 303 305 303 304 307 306 307 306 306 309 309 311 311 310 308 308 308 309 309 309 309 309 309 309 309 309 308 308 309
323 323 322 321 320 320 320 316 314 307 302 302 303 304 304 304 307 305 306 306 306 306 306 307 308 310 310 310 309 309 308 308 308 308 309 309 309 310 309 308 308 308 308 308 308
320 320 319 319 319 318 316 313 304 305 302 307 305 304 304 308 306 305 306 305 306 307 309 308 309 310 310 310 309 308 308 308 308 309 308 309 309 309 308 307 307 307 307 307 310
321 317 317 319 318 317 314 311 301 303 306 304 302 303 303 304 307 305 304 306 306 308 309 309 309 310 309 308 307 308 308 308 308 308 307 307 307 307 308 308 307 307 310 313 312
316 317 316 318 316 315 313 306 300 299 303 304 302 302 303 304 303 305 305 305 306 307 307 308 308 307 307 307 307 308 308 308 307 306 306 306 307 309 307 307 308 312 310 309 308
319 314 316 317 313 312 307 302 300 301 304 310 302 302 301 303 304 302 302 304 305 305 306 307 307 306 306 306 306 307 307 305 304 305 306 306 306 308 309 308 310 310 309 307 306
312 316 314 315 314 310 306 301 302 303 317 307 305 303 303 303 303 302 301 303 306 306 306 306 305 305 306 306 305 305 304 305 305 305 306 307 306 309 308 307 310 308 306 305 304
312 311 314 313 311 308 306 303 300 307 314 305 304 304 305 303 302 302 303 303 303 305 305 306 304 304 305 304 304 304 304 305 306 306 306 307 307 308 310 309 307 305 303 302 301
312 312 315 314 310 306 301 300 305 311 305 305 305 304 306 303 302 303 304 304 305 305 306 305 305 304 303 303 304 304 305 306 307 309 308 306 306 306 310 307 305 303 301 301 299
313 313 311 312 307 302 300 304 309 309 305 302 303 304 305 303 302 302 302 304 303 303 305 305 305 303 304 304 304 305 305 305 303 305 306 306 306 309 308 305 304 302 300 299 297
314 309 307 306 304 302 301 305 313 309 305 303 303 304 304 301 302 302 302 303 303 303 303 303 302 303 303 303 302 303 303 304 304 304 305 305 306 308 306 305 302 300 298 297 295
311 305 303 301 301 301 302 307 307 302 302 303 304 305 305 303 302 302 302 301 302 301 300 302 301 301 302 302 302 302 304 305 305 307 307 308 307 313 304 302 300 298 296 294 293
308 301 299 300 299 301 304 305 303 300 301 302 303 302 303 302 302 302 301 301 301 301 301 302 301 301 301 302 302 303 304 304 306 307 309 311 313 303 300 298 297 297 295 293 292
303 300 298 300 301 301 305 304 302 301 300 301 302 302 302 302 302 301 301 301 300 302 301 302 303 303 303 303 303 303 304 305 307 309 308 310 310 299 297 295 295 294 294 293 292
299 296 297 299 304 304 303 302 301 301 301 301 302 302 301 301 302 302 301 301 301 301 301 303 303 304 304 307 306 307 305 304 306 308 309 310 309 298 296 295 293 292 293 292 291
299 301 297 298 302 304 304 303 301 301 301 301 301 301 301 302 301 301 300 301 301 301 301 303 303 303 305 302 302 303 306 306 306 309 309 311 304 298 296 294 292 291 291 291 290
301 301 301 303 302 303 303 303 301 301 301 300 300 302 302 301 301 300 301 301 300 301 301 303 302 304 303 303 303 305 305 305 304 304 306 306 302 296 294 293 291 290 290 290 289
300 301 300 302 301 303 303 302 301 301 300 301 302 302 301 300 301 301 301 302 303 302 302 302 303 304 304 305 305 306 302 304 302 300 301 300 298 295 293 291 291 290 289 288 288
300 301 302 301 303 303 304 302 302 302 301 301 301 301 301 301 301 301 301 302 303 303 304 305 304 306 308 304 305 306 302 301 300 300 302 306 298 295 293 291 289 288 288 287 286
Wind_Speed
12 13 14 16 18 19 19 19 20 21 21 21 22 22 23 24 21 21 17 9 10 8 11 9 7 7 6 7 6 6 7 12 14 12 12 6 9 7 5 11 10 8 11 16 19
14 13 14 16 18 21 21 20 20 18 20 22 21 21 22 23 22 14 7 8 6 5 9 10 9 9 7 7 6 11 11 12 7 11 12 11 14 14 11 15 16 19 16 15 16
17 14 15 16 18 22 22 20 19 18 19 20 21 21 20 21 15 1 3 6 6 6 6 6 8 7 8 7 10 6 13 10 10 14 12 14 17 19 19 17 18 17 20 17 15
17 15 18 17 18 20 22 21 17 17 20 20 20 20 19 15 6 4 1 2 4 5 5 5 7 8 7 10 9 10 13 13 11 10 13 15 17 19 18 22 19 17 18 15 13
19 19 19 18 21 18 20 20 18 18 19 18 19 19 18 8 9 14 12 7 6 6 6 7 9 7 9 5 7 13 11 11 14 14 15 17 18 20 23 21 18 9 8 10 11
21 21 20 19 20 19 18 18 18 19 17 17 18 17 12 12 9 8 8 8 10 7 7 7 7 7 6 6 9 2 7 12 13 17 18 18 19 16 10 4 5 4 7 11 13
23 23 20 20 20 18 18 18 19 19 17 17 18 17 17 18 15 17 14 10 9 8 7 5 5 6 2 5 6 8 12 13 15 13 8 7 12 12 11 6 8 11 13 14 15
26 22 23 23 23 22 18 17 19 21 18 16 16 14 12 17 15 14 10 10 13 12 8 5 5 6 7 3 5 9 7 10 6 4 5 5 13 4 8 8 15 20 20 19 18
26 27 24 25 24 20 18 18 20 20 16 15 13 7 11 9 6 5 9 9 10 7 7 6 6 8 6 10 10 7 13 8 7 3 6 6 11 4 11 17 21 20 24 22 17
25 25 26 26 25 22 18 15 17 16 14 10 9 6 10 3 2 3 6 9 10 7 6 9 8 10 8 10 12 12 9 10 11 5 13 19 21 17 10 19 21 23 25 18 20
28 23 22 28 22 21 16 10 4 4 5 8 4 5 4 3 6 6 7 8 9 12 13 11 10 14 14 11 12 11 13 16 14 12 15 17 19 18 22 22 24 23 18 17 17
29 25 24 23 23 18 15 6 7 4 10 16 19 22 19 11 5 11 12 10 12 14 12 8 16 14 8 10 12 13 15 16 12 6 12 20 29 21 20 11 8 13 11 13 16
29 25 26 22 20 19 14 10 7 3 6 9 16 13 12 15 13 14 13 13 11 15 15 18 9 1 9 11 12 13 14 13 14 15 17 21 27 8 12 2 2 4 11 14 17
25 27 27 28 19 17 12 11 8 6 2 5 5 4 7 7 7 6 9 14 11 15 17 13 14 11 12 13 10 15 9 10 11 11 12 9 15 19 12 8 2 9 14 18 21
28 29 25 24 16 18 13 14 10 8 4 5 5 7 8 9 12 4 5 8 10 8 7 4 7 9 12 12 7 11 5 10 12 15 16 19 10 17 12 7 7 10 16 19 21
26 30 24 32 23 14 18 18 13 2 8 6 7 9 10 6 5 4 5 3 1 5 7 9 2 6 9 4 8 8 12 16 14 12 12 21 16 16 4 4 5 11 16 20 23
28 28 34 30 26 21 29 21 5 8 5 7 7 9 13 7 6 5 8 8 7 7 12 9 13 4 6 9 7 10 8 6 8 8 10 3 6 14 10 3 5 10 14 17 21
26 30 39 29 23 34 30 4 9 3 6 3 5 8 10 7 4 4 4 8 5 8 8 9 8 10 6 10 5 8 7 7 10 9 10 8 8 0 6 7 9 11 16 19 22
35 41 33 24 32 33 25 4 5 9 9 10 9 10 7 5 3 6 6 8 4 8 7 4 6 4 4 4 3 5 9 11 16 16 13 11 10 6 5 8 15 19 20 22 24
41 37 27 32 33 30 5 7 8 4 5 12 15 10 10 10 9 7 8 6 6 6 2 1 5 7 5 7 12 13 2 4 8 5 8 7 11 3 9 13 14 16 20 24 26
38 17 30 35 35 17 5 8 7 7 7 8 9 6 7 7 9 7 3 5 4 8 6 4 4 3 3 8 10 7 11 10 7 8 4 5 2 6 8 9 13 16 20 22 25
29 4 39 39 9 6 9 9 9 13 9 3 3 3 8 9 7 7 6 3 8 10 5 5 4 7 9 4 9 12 10 12 9 6 6 6 6 7 7 8 13 16 20 21 23
14 9 34 33 6 11 9 10 11 12 12 8 7 4 3 8 6 8 3 3 9 9 6 7 6 4 6 4 7 4 9 10 7 8 14 9 1 6 8 10 13 16 20 23 24
12 6 8 20 10 16 15 18 13 9 9 6 5 6 8 7 6 5 8 6 6 7 4 5 6 9 8 7 3 5 6 9 10 7 12 9 5 6 9 9 14 18 19 21 22
10 7 18 12 15 15 18 18 16 10 6 9 4 9 10 7 9 7 9 5 5 7 7 3 7 9 14 16 13 12 12 11 7 9 9 3 6 6 5 7 12 14 18 20 23
13 9 26 22 26 17 20 17 20 8 9 9 9 13 11 8 9 9 10 7 5 9 10 7 7 2 10 14 15 5 4 8 4 3 5 12 8 4 5 7 12 16 19 21 23
13 19 25 22 20 17 18 17 15 11 6 8 13 9 11 10 6 3 8 4 3 6 10 5 6 3 2 1 9 6 2 3 4 5 2 3 7 7 7 11 14 16 18 20 22
Wind_Direction
294 301 307 313 315 321 321 321 323 323 322 326 327 328 326 323 325 324 317 270 263 240 225 190 169 168 175 200 203 209 248 251 243 240 255 254 264 268 289 272 270 281 277 295 308
283 290 303 310 316 316 318 319 320 321 322 322 324 327 326 324 325 323 308 298 259 219 197 186 184 182 196 209 203 225 243 268 267 262 263 258 266 282 284 284 276 281 282 296 306
285 290 293 305 312 317 316 315 317 319 322 322 323 326 328 328 327 22 4 54 122 134 178 207 172 181 214 210 205 208 248 276 248 260 266 270 275 286 283 279 278 297 298 304 304
273 284 290 298 303 309 312 312 312 317 319 318 318 323 326 330 315 304 325 118 144 165 179 211 199 196 215 219 215 247 245 258 260 254 261 265 285 278 279 276 291 290 295 301 306
266 272 281 289 299 303 305 311 313 314 314 314 316 322 327 295 269 278 271 240 231 230 218 229 235 236 236 222 223 243 261 260 256 263 265 275 268 273 276 279 286 292 295 303 309
261 265 273 280 291 293 298 305 309 308 309 309 312 317 315 278 264 274 270 250 233 226 234 224 248 238 261 244 239 331 262 262 270 268 275 275 272 266 262 251 239 282 309 311 310
263 263 264 274 280 288 294 299 307 303 302 305 307 310 296 269 268 269 265 249 220 217 230 229 229 232 204 245 249 266 277 270 258 260 256 282 251 226 249 230 275 290 304 312 309
267 260 265 271 278 277 287 292 302 302 299 300 301 298 266 275 268 263 261 239 219 212 236 246 219 253 244 268 240 269 260 275 110 240 181 279 278 201 199 275 299 302 306 303 300
268 263 261 268 270 277 288 293 298 297 297 304 296 264 273 280 276 242 237 214 211 214 220 227 227 245 213 243 259 203 277 267 286 238 292 252 302 273 277 285 293 290 296 296 298
265 267 277 269 273 274 286 295 297 296 295 300 265 259 253 268 222 239 217 194 206 204 189 210 222 240 227 236 259 296 265 260 263 275 287 287 277 277 271 275 277 283 289 294 302
263 268 270 270 272 271 282 284 297 272 239 225 231 254 248 275 190 173 151 160 182 207 222 211 235 233 247 251 283 284 273 274 278 289 290 279 285 282 279 272 268 275 287 304 320
257 262 266 266 268 276 269 230 214 238 297 256 254 252 251 243 246 202 178 190 199 219 215 218 241 256 263 271 256 252 264 269 285 254 274 295 289 296 284 274 249 282 318 332 330
252 247 253 257 260 262 254 218 205 189 263 263 237 247 238 221 228 227 202 210 221 236 220 246 262 344 234 233 237 241 263 276 282 302 281 281 285 266 182 132 24 360 331 332 334
241 249 246 247 237 240 210 193 178 109 309 242 214 235 186 175 204 193 210 223 222 249 243 263 280 245 244 249 255 270 275 269 282 292 292 334 297 294 275 154 144 343 338 337 337
244 240 241 248 237 197 189 174 169 132 272 140 151 156 155 185 131 146 172 197 233 201 188 221 209 211 234 248 233 268 291 281 288 281 291 266 245 287 188 257 12 343 337 336 333
237 238 228 225 216 198 167 158 136 155 243 165 155 173 166 170 149 141 177 161 163 212 234 272 241 240 258 235 240 297 280 276 265 263 250 270 236 278 350 31 323 342 339 333 335
228 228 233 222 212 166 142 138 109 235 102 169 176 191 193 168 148 197 191 188 225 214 222 210 230 198 237 247 227 241 251 275 240 212 257 91 245 259 109 76 8 339 333 335 337
216 224 217 219 184 151 148 104 206 226 196 110 150 169 201 162 160 173 191 220 222 246 272 256 239 197 184 233 274 217 240 260 283 288 295 164 253 160 92 49 10 350 346 345 342
208 199 187 178 174 162 136 214 248 225 182 169 156 189 186 161 207 202 225 257 212 206 238 224 235 192 211 183 208 183 233 262 274 272 268 243 249 175 39 356 357 355 352 348 347
189 174 165 164 161 160 141 240 216 190 169 190 208 212 198 186 190 199 197 168 180 191 230 144 272 234 187 252 241 244 314 218 214 250 253 228 239 64 355 349 352 351 352 349 349
174 145 157 158 153 165 189 210 202 196 173 193 201 176 192 181 211 194 194 150 186 171 184 164 221 142 215 214 242 188 228 235 275 266 277 303 99 25 9 357 347 347 354 354 350
154 124 158 165 147 200 209 196 197 173 183 147 185 162 187 179 197 213 230 212 181 162 188 187 247 259 259 300 273 261 236 224 236 225 247 280 294 30 26 5 360 354 356 355 357
108 108 163 161 183 192 186 194 201 181 189 180 168 161 158 187 218 218 185 146 160 181 197 178 208 248 170 233 190 194 223 244 260 289 265 272 287 53 27 17 11 6 3 3 1
128 138 155 203 233 188 182 190 172 190 173 157 128 146 168 195 199 195 208 177 190 212 182 169 248 246 274 14 11 242 215 226 251 264 276 248 132 42 29 9 9 12 9 7 4
160 179 169 183 203 190 186 189 180 166 168 156 150 213 189 192 197 212 196 167 201 183 194 221 253 245 263 278 269 258 262 253 235 274 270 108 99 59 33 15 16 13 11 9 6
146 152 176 168 178 185 190 191 184 158 153 186 225 196 195 196 200 197 182 187 191 190 206 212 253 278 272 259 246 215 242 225 199 298 77 117 96 86 73 49 31 20 15 9 7
156 152 148 165 175 180 187 174 179 121 190 215 196 169 198 215 200 144 186 192 200 193 194 201 222 231 314 39 136 178 126 146 133 42 285 212 111 145 84 54 32 19 14 10 8